Weather History for Show Low, AZ

Change the Weather History Date:

Thursday, January 16, 2014

  Actual Average Record
Temperature  
Mean Temperature 32 °F -  
Max Temperature 48 °F 45 °F 66 °F (2000)
Min Temperature 17 °F 28 °F -2 °F (1992)
Degree Days  
Heating Degree Days 32    
Moisture  
Dew Point 8 °F    
Average Humidity 41    
Maximum Humidity 68    
Minimum Humidity 17    
Precipitation  
Precipitation 0.00 in - - ()
Sea Level Pressure  
Sea Level Pressure 30.33 in    
Wind  
Wind Speed 3 mph (NNE)    
Max Wind Speed 12 mph    
Max Gust Speed 17 mph    
Visibility 10 miles    
Events      
Averages and records for this station are not official NWS values.
T = Trace of Precipitation, MM = Missing Value Source: NWS Daily Summary

Daily Weather History Graph

Daily Weather History Graph

Search for Another Location

Airport:

Trip Planner

Search our weather history database for the weather conditions in past years. The results will help you decide how hot, cold, wet, or windy it might be!

Date:

Astronomy

Jan. 16, 2014 Rise Set
Actual Time 7:25 AM MST 5:34 PM MST
Civil Twilight 6:58 AM MST 6:01 PM MST
Nautical Twilight 6:27 AM MST 6:32 PM MST
Astronomical Twilight 5:57 AM MST 7:02 PM MST
Moon 6:24 PM MST (1/16) 7:24 AM MST (1/16)
Length of Visible Light 11h 03m
Length of Day
10h 08m
Full, 100% of the Moon is Illuminated
Jan 16
Full
Jan 23
Last Quarter
Jan 30
New
Feb 6
First Quarter
Feb 14
Full

Hourly Weather History & Observations

Time (MST) Temp. Windchill Dew Point Humidity Pressure Visibility Wind Dir Wind Speed Gust Speed Precip Events Conditions
12:15 AM 26.6 °F 22.6 °F 6.8 °F 43% 30.33 in 10.0 mi East 3.5 mph - N/A   Clear
12:35 AM 24.8 °F 20.5 °F 6.8 °F 46% 30.33 in 10.0 mi East 3.5 mph - N/A   Clear
12:55 AM 23.0 °F - 6.8 °F 50% 30.33 in 10.0 mi Calm Calm - N/A   Clear
1:15 AM 19.4 °F - 6.8 °F 58% 30.34 in 10.0 mi Calm Calm - N/A   Clear
1:35 AM 21.2 °F - 6.8 °F 54% 30.33 in 10.0 mi Calm Calm - N/A   Clear
1:55 AM 19.4 °F 14.3 °F 6.8 °F 58% 30.34 in 10.0 mi East 3.5 mph - N/A   Clear
2:15 AM 21.2 °F 16.4 °F 8.6 °F 58% 30.34 in 10.0 mi East 3.5 mph - N/A   Clear
2:35 AM 23.0 °F - 6.8 °F 50% 30.34 in 10.0 mi Calm Calm - N/A   Clear
2:55 AM 19.4 °F - 8.6 °F 63% 30.34 in 10.0 mi Calm Calm - N/A   Clear
3:15 AM 19.4 °F - 8.6 °F 63% 30.33 in 10.0 mi Calm Calm - N/A   Clear
3:35 AM 23.0 °F - 8.6 °F 54% 30.32 in 10.0 mi Calm Calm - N/A   Clear
3:55 AM 23.0 °F - 8.6 °F 54% 30.32 in 10.0 mi Calm Calm - N/A   Clear
4:15 AM 19.4 °F - 8.6 °F 63% 30.32 in 10.0 mi Calm Calm - N/A   Clear
4:35 AM 17.6 °F - 8.6 °F 68% 30.32 in 10.0 mi Calm Calm - N/A   Clear
4:55 AM 17.6 °F - 8.6 °F 68% 30.32 in 10.0 mi Calm Calm - N/A   Clear
5:15 AM 17.6 °F 12.3 °F 8.6 °F 68% 30.32 in 10.0 mi West 3.5 mph - N/A   Clear
5:35 AM 21.2 °F 14.9 °F 10.4 °F 63% 30.32 in 10.0 mi West 4.6 mph - N/A   Clear
5:55 AM 19.4 °F 12.8 °F 8.6 °F 63% 30.32 in 10.0 mi West 4.6 mph - N/A   Clear
6:15 AM 17.6 °F - 8.6 °F 68% 30.33 in 10.0 mi Calm Calm - N/A   Clear
6:35 AM 19.4 °F - 8.6 °F 63% 30.33 in 10.0 mi Calm Calm - N/A   Clear
6:55 AM 23.0 °F - 10.4 °F 59% 30.34 in 10.0 mi Calm Calm - N/A   Clear
7:15 AM 17.6 °F - 8.6 °F 68% 30.33 in 10.0 mi Calm Calm - N/A   Clear
7:35 AM 17.6 °F - 8.6 °F 68% 30.34 in 9.0 mi Calm Calm - N/A   Clear
7:55 AM 19.4 °F - 8.6 °F 63% 30.34 in 10.0 mi Calm Calm - N/A   Clear
8:15 AM 23.0 °F - 10.4 °F 59% 30.35 in 10.0 mi Calm Calm - N/A   Clear
8:35 AM 26.6 °F - 12.2 °F 55% 30.35 in 10.0 mi Calm Calm - N/A   Clear
8:55 AM 30.2 °F - 10.4 °F 44% 30.36 in 10.0 mi Calm Calm - N/A   Clear
9:15 AM 32.0 °F - 10.4 °F 41% 30.36 in 10.0 mi Calm Calm - N/A   Clear
9:35 AM 33.8 °F - 12.2 °F 41% 30.36 in 10.0 mi Calm Calm - N/A   Clear
9:55 AM 35.6 °F 32.8 °F 12.2 °F 38% 30.37 in 10.0 mi NNE 3.5 mph - N/A   Clear
10:15 AM 37.4 °F 32.8 °F 12.2 °F 36% 30.37 in 10.0 mi North 5.8 mph - N/A   Clear
10:35 AM 39.2 °F 35.9 °F 12.2 °F 33% 30.37 in 10.0 mi NE 4.6 mph - N/A   Clear
10:55 AM 41.0 °F 35.8 °F 10.4 °F 29% 30.37 in 10.0 mi NNE 8.1 mph - N/A   Clear
11:15 AM 42.8 °F 38.6 °F 10.4 °F 27% 30.36 in 10.0 mi NNE 6.9 mph - N/A   Clear
11:35 AM 44.6 °F 39.2 °F 10.4 °F 25% 30.35 in 10.0 mi NNE 10.4 mph - N/A   Clear
11:55 AM 44.6 °F 39.2 °F 10.4 °F 25% 30.34 in 10.0 mi NNW 10.4 mph 17.3 mph N/A   Clear
12:15 PM 44.6 °F 39.7 °F 8.6 °F 23% 30.33 in 10.0 mi NNW 9.2 mph 16.1 mph N/A   Clear
12:35 PM 44.6 °F 38.8 °F 8.6 °F 23% 30.33 in 10.0 mi NNW 11.5 mph - N/A   Clear
12:55 PM 44.6 °F 39.2 °F 8.6 °F 23% 30.32 in 10.0 mi North 10.4 mph - N/A   Clear
1:35 PM 46.4 °F 41.1 °F 8.6 °F 22% 30.31 in 10.0 mi North 11.5 mph 17.3 mph N/A   Clear
1:55 PM 46.4 °F 42.9 °F 8.6 °F 22% 30.31 in 10.0 mi NNE 6.9 mph - N/A   Clear
2:15 PM 46.4 °F 41.9 °F 8.6 °F 22% 30.30 in 10.0 mi North 9.2 mph - N/A   Clear
2:35 PM 46.4 °F 41.5 °F 8.6 °F 22% 30.30 in 10.0 mi North 10.4 mph - N/A   Clear
2:55 PM 46.4 °F 41.1 °F 6.8 °F 20% 30.30 in 10.0 mi NNW 11.5 mph - N/A   Clear
3:15 PM 48.2 °F - 6.8 °F 19% 30.30 in 10.0 mi North 11.5 mph 17.3 mph N/A   Clear
3:35 PM 48.2 °F - 5.0 °F 17% 30.29 in 10.0 mi North 10.4 mph - N/A   Clear
3:55 PM 48.2 °F - 5.0 °F 17% 30.29 in 10.0 mi North 10.4 mph - N/A   Clear
4:15 PM 46.4 °F 41.5 °F 5.0 °F 18% 30.29 in 10.0 mi NNE 10.4 mph - N/A   Clear
4:35 PM 46.4 °F 41.1 °F 5.0 °F 18% 30.29 in 10.0 mi North 11.5 mph - N/A   Clear
4:55 PM 44.6 °F 39.2 °F 5.0 °F 20% 30.30 in 10.0 mi North 10.4 mph - N/A   Clear
5:15 PM 42.8 °F 39.3 °F 5.0 °F 21% 30.31 in 10.0 mi North 5.8 mph - N/A   Clear
5:35 PM 39.2 °F 34.2 °F 5.0 °F 24% 30.31 in 10.0 mi North 6.9 mph - N/A   Clear
5:55 PM 37.4 °F 32.1 °F 5.0 °F 26% 30.32 in 10.0 mi North 6.9 mph - N/A   Clear
6:15 PM 37.4 °F 32.8 °F 5.0 °F 26% 30.32 in 10.0 mi North 5.8 mph - N/A   Clear
6:35 PM 35.6 °F 32.8 °F 5.0 °F 28% 30.32 in 10.0 mi ENE 3.5 mph - N/A   Clear
6:55 PM 35.6 °F 32.8 °F 5.0 °F 28% 30.32 in 10.0 mi East 3.5 mph - N/A   Clear
7:15 PM 33.8 °F 30.8 °F 6.8 °F 32% 30.32 in 10.0 mi ENE 3.5 mph - N/A   Clear
7:35 PM 32.0 °F 26.4 °F 5.0 °F 32% 30.33 in 10.0 mi ENE 5.8 mph - N/A   Clear
7:55 PM 28.4 °F 22.2 °F 5.0 °F 37% 30.33 in 10.0 mi East 5.8 mph - N/A   Clear
8:15 PM 32.0 °F 26.4 °F 5.0 °F 32% 30.33 in 10.0 mi ESE 5.8 mph - N/A   Clear
8:35 PM 32.0 °F 27.5 °F 5.0 °F 32% 30.33 in 10.0 mi ESE 4.6 mph - N/A   Clear
8:55 PM 28.4 °F 23.3 °F 5.0 °F 37% 30.33 in 10.0 mi ESE 4.6 mph - N/A   Clear
9:15 PM 32.0 °F 27.5 °F 6.8 °F 35% 30.34 in 10.0 mi East 4.6 mph - N/A   Clear
9:35 PM 28.4 °F 23.3 °F 6.8 °F 40% 30.34 in 10.0 mi SE 4.6 mph - N/A   Clear
9:55 PM 28.4 °F 24.6 °F 6.8 °F 40% 30.34 in 10.0 mi SE 3.5 mph - N/A   Clear
10:15 PM 28.4 °F - 6.8 °F 40% 30.34 in 10.0 mi Calm Calm - N/A   Clear
10:35 PM 26.6 °F - 6.8 °F 43% 30.35 in 10.0 mi Calm Calm - N/A   Clear
10:55 PM 26.6 °F - 6.8 °F 43% 30.34 in 10.0 mi Calm Calm - N/A   Clear
11:35 PM 23.0 °F 18.4 °F 6.8 °F 50% 30.33 in 10.0 mi WSW 3.5 mph - N/A   Clear
11:55 PM 21.2 °F 16.4 °F 5.0 °F 50% 30.34 in 10.0 mi South 3.5 mph - N/A   Clear